Time,TemperatureF,DewpointF,PressureIn,WindDirection,WindDirectionDegrees,WindSpeedMPH,WindSpeedGustMPH,Humidity,HourlyPrecipIn,Conditions,Clouds,dailyrainin,SoftwareType,DateUTC
2013-07-21 00:00:00,91.0,42.0,-100.00,North,-999,-999.0,-999.0,18,0.00,,,0.00,,2013-07-21 07:00:00,
2013-07-21 00:53:00,91.0,42.0,-100.00,North,-999,-999.0,-999.0,18,0.00,,,0.00,,2013-07-21 07:53:00,
2013-07-21 01:00:00,89.0,43.0,-100.00,North,-999,-999.0,-999.0,20,-99.99,,,0.00,,2013-07-21 08:00:00,
2013-07-21 01:52:00,89.0,43.0,-100.00,North,-999,-999.0,-999.0,20,-99.99,,,0.00,,2013-07-21 08:52:00,
2013-07-21 02:00:00,86.0,44.0,-100.00,North,-999,-999.0,-999.0,23,0.00,,,0.00,,2013-07-21 09:00:00,
2013-07-21 02:52:00,86.0,44.0,-100.00,North,-999,-999.0,-999.0,23,0.00,,,0.00,,2013-07-21 09:52:00,
2013-07-21 03:00:00,86.0,46.0,-100.00,North,-999,-999.0,-999.0,25,0.00,,,0.00,,2013-07-21 10:00:00,
2013-07-21 03:52:00,86.0,46.0,-100.00,North,-999,-999.0,-999.0,25,0.00,,,0.00,,2013-07-21 10:52:00,
2013-07-21 04:00:00,85.0,45.0,-100.00,North,-999,-999.0,-999.0,25,0.00,,,0.00,,2013-07-21 11:00:00,
2013-07-21 04:52:00,85.0,45.0,-100.00,North,-999,-999.0,-999.0,25,0.00,,,0.00,,2013-07-21 11:52:00,
2013-07-21 05:00:00,83.0,49.0,-100.00,North,-999,-999.0,-999.0,31,0.00,,,0.00,,2013-07-21 12:00:00,
2013-07-21 05:53:00,83.0,49.0,-100.00,North,-999,-999.0,-999.0,31,0.00,,,0.00,,2013-07-21 12:53:00,
2013-07-21 06:00:00,83.0,47.0,-100.00,North,-999,-999.0,-999.0,28,0.00,,,0.00,,2013-07-21 13:00:00,
2013-07-21 07:00:00,81.0,48.0,-100.00,North,-999,-999.0,-999.0,31,0.00,,,0.00,,2013-07-21 14:00:00,
2013-07-21 08:00:00,82.0,48.0,-100.00,North,-999,-999.0,-999.0,31,0.00,,,0.00,,2013-07-21 15:00:00,
2013-07-21 08:53:00,82.0,48.0,-100.00,North,-999,-999.0,-999.0,31,0.00,,,0.00,,2013-07-21 15:53:00,
2013-07-21 09:00:00,88.0,46.0,-100.00,North,-999,-999.0,-999.0,24,0.00,,,0.00,,2013-07-21 16:00:00,
2013-07-21 09:52:00,88.0,46.0,-100.00,North,-999,-999.0,-999.0,24,0.00,,,0.00,,2013-07-21 16:52:00,
2013-07-21 10:00:00,92.0,49.0,-100.00,North,-999,-999.0,-999.0,23,0.00,,,0.00,,2013-07-21 17:00:00,
2013-07-21 11:00:00,96.0,47.0,-100.00,North,-999,-999.0,-999.0,19,0.00,,,0.00,,2013-07-21 18:00:00,
2013-07-21 12:00:00,98.0,41.0,-100.00,North,-999,-999.0,-999.0,14,0.00,,,0.00,,2013-07-21 19:00:00,
2013-07-21 12:52:00,98.0,41.0,-100.00,North,-999,-999.0,-999.0,14,0.00,,,0.00,,2013-07-21 19:52:00,
2013-07-21 13:00:00,102.0,44.0,-100.00,North,-999,-999.0,-999.0,14,0.00,,,0.00,,2013-07-21 20:00:00,
2013-07-21 13:52:00,102.0,44.0,-100.00,North,-999,-999.0,-999.0,14,0.00,,,0.00,,2013-07-21 20:52:00,
2013-07-21 14:00:00,105.0,44.0,-100.00,North,-999,-999.0,-999.0,13,0.00,,,0.00,,2013-07-21 21:00:00,
2013-07-21 14:52:00,105.0,44.0,-100.00,North,-999,-999.0,-999.0,13,0.00,,,0.00,,2013-07-21 21:52:00,
2013-07-21 15:00:00,106.0,45.0,-100.00,North,-999,-999.0,-999.0,13,0.00,,,0.00,,2013-07-21 22:00:00,
2013-07-21 15:52:00,106.0,45.0,-100.00,North,-999,-999.0,-999.0,13,0.00,,,0.00,,2013-07-21 22:52:00,
2013-07-21 16:00:00,105.0,44.0,-100.00,North,-999,-999.0,-999.0,13,0.00,,,0.00,,2013-07-21 23:00:00,
2013-07-21 16:53:00,105.0,44.0,-100.00,North,-999,-999.0,-999.0,13,0.00,,,0.00,,2013-07-21 23:53:00,
2013-07-21 17:00:00,105.0,44.0,-100.00,North,-999,-999.0,-999.0,13,0.00,,,0.00,,2013-07-22 00:00:00,
2013-07-21 18:00:00,103.0,43.0,-100.00,North,-999,-999.0,-999.0,13,0.00,,,0.00,,2013-07-22 01:00:00,
2013-07-21 19:00:00,101.0,39.0,-100.00,North,-999,-999.0,-999.0,12,0.00,,,0.00,,2013-07-22 02:00:00,
2013-07-21 19:52:00,101.0,39.0,-100.00,North,-999,-999.0,-999.0,12,0.00,,,0.00,,2013-07-22 02:52:00,
2013-07-21 20:00:00,99.0,47.0,-100.00,North,-999,-999.0,-999.0,17,0.00,,,0.00,,2013-07-22 03:00:00,
2013-07-21 20:53:00,99.0,47.0,-100.00,North,-999,-999.0,-999.0,17,0.00,,,0.00,,2013-07-22 03:53:00,
2013-07-21 21:00:00,98.0,54.0,-100.00,North,-999,-999.0,-999.0,23,0.00,,,0.00,,2013-07-22 04:00:00,
2013-07-21 22:00:00,94.0,55.0,-100.00,North,-999,-999.0,-999.0,27,0.00,,,0.00,,2013-07-22 05:00:00,
2013-07-21 22:52:00,94.0,55.0,-100.00,North,-999,-999.0,-999.0,27,0.00,,,0.00,,2013-07-22 05:52:00,
2013-07-21 23:00:00,93.0,57.0,-100.00,North,-999,-999.0,-999.0,30,0.00,,,0.00,,2013-07-22 06:00:00,
2013-07-21 23:52:00,93.0,57.0,-100.00,North,-999,-999.0,-999.0,30,0.00,,,0.00,,2013-07-22 06:52:00,